owner,sensor,date,latitude,longitude,air_temperature,qcFlag 
ADCP,ioos:station:wmo:42369:1,2012-01-18T19:00:00Z,27.2070,-90.2830,13.3,11111222 
ADCP,ioos:station:wmo:42369:1,2012-01-18T19:20:00Z,27.2070,-90.2830,13.3,11111222 
ADCP,ioos:station:wmo:42369:1,2012-01-18T20:00:00Z,27.2070,-90.2830,13.6,11111222 
ADCP,ioos:station:wmo:42369:1,2012-01-18T21:00:00Z,27.2070,-90.2830,13.9,11111222 
ADCP,ioos:station:wmo:42369:1,2012-01-18T22:00:00Z,27.2070,-90.2830,13.9,11111222 
ADCP,ioos:station:wmo:42369:1,2012-01-18T23:00:00Z,27.2070,-90.2830,13.9,11111222 
ADCP,ioos:station:wmo:42369:1,2012-01-18T23:20:00Z,27.2070,-90.2830,13.9,11111222 
ADCP,ioos:station:wmo:42369:1,2012-01-19T00:00:00Z,27.2070,-90.2830,13.9,11111222 
ADCP,ioos:station:wmo:42369:1,2012-01-19T00:20:00Z,27.2070,-90.2830,13.9,11111222 
ADCP,ioos:station:wmo:42369:1,2012-01-19T01:00:00Z,27.2070,-90.2830,13.9,11111222 
ADCP,ioos:station:wmo:42369:1,2012-01-19T01:20:00Z,27.2070,-90.2830,13.9,11111222 
ADCP,ioos:station:wmo:42369:1,2012-01-19T02:00:00Z,27.2070,-90.2830,13.9,11111222 
ADCP,ioos:station:wmo:42369:1,2012-01-19T02:20:00Z,27.2070,-90.2830,16.2,11111222 
ADCP,ioos:station:wmo:42369:1,2012-01-19T03:20:00Z,27.2070,-90.2830,16.4,11111222 
ADCP,ioos:station:wmo:42369:1,2012-01-19T04:20:00Z,27.2070,-90.2830,16.3,11111222 
ADCP,ioos:station:wmo:42369:1,2012-01-19T05:00:00Z,27.2070,-90.2830,16.5,11111222 
ADCP,ioos:station:wmo:42369:1,2012-01-19T05:20:00Z,27.2070,-90.2830,16.5,11111222 
ADCP,ioos:station:wmo:42369:1,2012-01-19T06:00:00Z,27.2070,-90.2830,16.6,11111222 
ADCP,ioos:station:wmo:42369:1,2012-01-19T06:20:00Z,27.2070,-90.2830,16.6,11111222 
ADCP,ioos:station:wmo:42369:1,2012-01-19T07:00:00Z,27.2070,-90.2830,16.6,11111222 
ADCP,ioos:station:wmo:42369:1,2012-01-19T07:20:00Z,27.2070,-90.2830,16.6,11111222 
ADCP,ioos:station:wmo:42369:1,2012-01-19T07:40:00Z,27.2070,-90.2830,17.0,11111222 
ADCP,ioos:station:wmo:42369:1,2012-01-19T08:00:00Z,27.2070,-90.2830,17.3,11111222 
ADCP,ioos:station:wmo:42369:1,2012-01-19T08:20:00Z,27.2070,-90.2830,17.3,11111222 
ADCP,ioos:station:wmo:42369:1,2012-01-19T09:20:00Z,27.2070,-90.2830,17.3,11111222 
ADCP,ioos:station:wmo:42369:1,2012-01-19T10:00:00Z,27.2070,-90.2830,17.3,11111222 
ADCP,ioos:station:wmo:42369:1,2012-01-19T10:20:00Z,27.2070,-90.2830,17.3,11111222 
ADCP,ioos:station:wmo:42369:1,2012-01-19T11:00:00Z,27.2070,-90.2830,17.3,11111222 
ADCP,ioos:station:wmo:42369:1,2012-01-19T11:20:00Z,27.2070,-90.2830,17.3,11111222 
ADCP,ioos:station:wmo:42369:1,2012-01-19T12:00:00Z,27.2070,-90.2830,17.3,11111222 
ADCP,ioos:station:wmo:42369:1,2012-01-19T12:20:00Z,27.2070,-90.2830,17.3,11111222 
ADCP,ioos:station:wmo:42369:1,2012-01-19T15:00:00Z,27.2070,-90.2830,17.3,11111222 
ADCP,ioos:station:wmo:42369:1,2012-01-19T15:20:00Z,27.2070,-90.2830,17.3,11111222 
ADCP,ioos:station:wmo:42369:1,2012-01-19T16:00:00Z,27.2070,-90.2830,17.3,11111222 
ADCP,ioos:station:wmo:42369:1,2012-01-19T16:20:00Z,27.2070,-90.2830,17.3,11111222 
ADCP,ioos:station:wmo:42369:1,2012-01-19T17:00:00Z,27.2070,-90.2830,17.3,11111222 
ADCP,ioos:station:wmo:42369:1,2012-01-19T18:00:00Z,27.2070,-90.2830,17.3,11111222 
ADCP,ioos:station:wmo:42369:1,2012-01-19T18:20:00Z,27.2070,-90.2830,17.3,11111222 
ADCP,ioos:station:wmo:42369:1,2012-01-19T19:20:00Z,27.2070,-90.2830,17.3,11111222 
ADCP,ioos:station:wmo:42369:1,2012-01-19T20:00:00Z,27.2070,-90.2830,17.3,11111222 
ADCP,ioos:station:wmo:42369:1,2012-01-19T20:20:00Z,27.2070,-90.2830,17.3,11111222 
ADCP,ioos:station:wmo:42369:1,2012-01-19T21:00:00Z,27.2070,-90.2830,17.3,11111222 
ADCP,ioos:station:wmo:42369:1,2012-01-19T21:20:00Z,27.2070,-90.2830,17.3,11111222 
ADCP,ioos:station:wmo:42369:1,2012-01-19T22:00:00Z,27.2070,-90.2830,17.3,11111222 
ADCP,ioos:station:wmo:42369:1,2012-01-19T22:20:00Z,27.2070,-90.2830,17.3,11111222 
ADCP,ioos:station:wmo:42369:1,2012-01-19T23:20:00Z,27.2070,-90.2830,17.3,11111222 
ADCP,ioos:station:wmo:42369:1,2012-01-20T00:00:00Z,27.2070,-90.2830,17.3,11111222 
ADCP,ioos:station:wmo:42369:1,2012-01-20T00:20:00Z,27.2070,-90.2830,17.3,11111222 
ADCP,ioos:station:wmo:42369:1,2012-01-20T01:20:00Z,27.2070,-90.2830,17.3,11111222 
ADCP,ioos:station:wmo:42369:1,2012-01-20T02:00:00Z,27.2070,-90.2830,17.3,11111222 
ADCP,ioos:station:wmo:42369:1,2012-01-20T02:20:00Z,27.2070,-90.2830,17.3,11111222 
ADCP,ioos:station:wmo:42369:1,2012-01-20T03:20:00Z,27.2070,-90.2830,17.3,11111222 
ADCP,ioos:station:wmo:42369:1,2012-01-20T04:20:00Z,27.2070,-90.2830,17.3,11111222 
ADCP,ioos:station:wmo:42369:1,2012-01-20T04:40:00Z,27.2070,-90.2830,17.3,11111222 
ADCP,ioos:station:wmo:42369:1,2012-01-20T05:00:00Z,27.2070,-90.2830,17.3,11111222 
ADCP,ioos:station:wmo:42369:1,2012-01-20T06:20:00Z,27.2070,-90.2830,17.3,11111222 
ADCP,ioos:station:wmo:42369:1,2012-01-20T07:00:00Z,27.2070,-90.2830,17.3,11111222 
ADCP,ioos:station:wmo:42369:1,2012-01-20T08:00:00Z,27.2070,-90.2830,17.3,11111222 
ADCP,ioos:station:wmo:42369:1,2012-01-20T08:20:00Z,27.2070,-90.2830,17.3,11111222 
ADCP,ioos:station:wmo:42369:1,2012-01-20T09:20:00Z,27.2070,-90.2830,17.3,11111222 
ADCP,ioos:station:wmo:42369:1,2012-01-20T10:00:00Z,27.2070,-90.2830,17.3,11111222 
ADCP,ioos:station:wmo:42369:1,2012-01-20T11:00:00Z,27.2070,-90.2830,17.3,11111222 
ADCP,ioos:station:wmo:42369:1,2012-01-20T11:20:00Z,27.2070,-90.2830,17.3,11111222 
ADCP,ioos:station:wmo:42369:1,2012-01-20T12:00:00Z,27.2070,-90.2830,17.3,11111222 
ADCP,ioos:station:wmo:42369:1,2012-01-20T12:40:00Z,27.2070,-90.2830,21.4,11111222 
ADCP,ioos:station:wmo:42369:1,2012-01-20T13:20:00Z,27.2070,-90.2830,21.3,11111222 
ADCP,ioos:station:wmo:42369:1,2012-01-20T13:40:00Z,27.2070,-90.2830,21.3,11111222 
ADCP,ioos:station:wmo:42369:1,2012-01-20T14:00:00Z,27.2070,-90.2830,21.3,11111222 
ADCP,ioos:station:wmo:42369:1,2012-01-20T14:20:00Z,27.2070,-90.2830,21.3,11111222 
ADCP,ioos:station:wmo:42369:1,2012-01-20T15:00:00Z,27.2070,-90.2830,21.3,11111222 
ADCP,ioos:station:wmo:42369:1,2012-01-20T15:20:00Z,27.2070,-90.2830,21.3,11111222 
ADCP,ioos:station:wmo:42369:1,2012-01-20T16:00:00Z,27.2070,-90.2830,21.3,11111222 
ADCP,ioos:station:wmo:42369:1,2012-01-20T16:20:00Z,27.2070,-90.2830,21.3,11111222 
ADCP,ioos:station:wmo:42369:1,2012-01-20T17:00:00Z,27.2070,-90.2830,21.3,11111222 
ADCP,ioos:station:wmo:42369:1,2012-01-20T17:20:00Z,27.2070,-90.2830,21.3,11111222 
ADCP,ioos:station:wmo:42369:1,2012-01-20T18:00:00Z,27.2070,-90.2830,21.3,11111222 
ADCP,ioos:station:wmo:42369:1,2012-01-20T18:20:00Z,27.2070,-90.2830,21.3,11111222 
ADCP,ioos:station:wmo:42369:1,2012-01-20T19:00:00Z,27.2070,-90.2830,21.3,11111222 
ADCP,ioos:station:wmo:42369:1,2012-01-20T19:20:00Z,27.2070,-90.2830,21.3,11111222 
ADCP,ioos:station:wmo:42369:1,2012-01-20T20:00:00Z,27.2070,-90.2830,21.3,11111222 
ADCP,ioos:station:wmo:42369:1,2012-01-20T20:20:00Z,27.2070,-90.2830,21.3,11111222 
ADCP,ioos:station:wmo:42369:1,2012-01-20T20:40:00Z,27.2070,-90.2830,21.3,11111222 
ADCP,ioos:station:wmo:42369:1,2012-01-20T21:00:00Z,27.2070,-90.2830,21.3,11111222 
ADCP,ioos:station:wmo:42369:1,2012-01-20T21:20:00Z,27.2070,-90.2830,21.3,11111222 
ADCP,ioos:station:wmo:42369:1,2012-01-20T22:00:00Z,27.2070,-90.2830,21.3,11111222 
ADCP,ioos:station:wmo:42369:1,2012-01-20T23:00:00Z,27.2070,-90.2830,21.3,11111222 
ADCP,ioos:station:wmo:42369:1,2012-01-20T23:20:00Z,27.2070,-90.2830,21.3,11111222 
ADCP,ioos:station:wmo:42369:1,2012-01-21T00:00:00Z,27.2070,-90.2830,21.3,11111222 
ADCP,ioos:station:wmo:42369:1,2012-01-21T00:20:00Z,27.2070,-90.2830,21.3,11111222 
ADCP,ioos:station:wmo:42369:1,2012-01-21T01:00:00Z,27.2070,-90.2830,21.3,11111222 
ADCP,ioos:station:wmo:42369:1,2012-01-21T01:20:00Z,27.2070,-90.2830,21.3,11111222 
ADCP,ioos:station:wmo:42369:1,2012-01-21T01:40:00Z,27.2070,-90.2830,21.3,11111222 
ADCP,ioos:station:wmo:42369:1,2012-01-21T02:00:00Z,27.2070,-90.2830,21.3,11111222 
ADCP,ioos:station:wmo:42369:1,2012-01-21T02:20:00Z,27.2070,-90.2830,21.3,11111222 
ADCP,ioos:station:wmo:42369:1,2012-01-21T03:20:00Z,27.2070,-90.2830,21.3,11111222 
ADCP,ioos:station:wmo:42369:1,2012-01-21T04:00:00Z,27.2070,-90.2830,21.3,11111222 
ADCP,ioos:station:wmo:42369:1,2012-01-21T04:20:00Z,27.2070,-90.2830,21.3,11111222 
ADCP,ioos:station:wmo:42369:1,2012-01-21T05:00:00Z,27.2070,-90.2830,21.3,11111222 
ADCP,ioos:station:wmo:42369:1,2012-01-21T05:20:00Z,27.2070,-90.2830,21.3,11111222 
ADCP,ioos:station:wmo:42369:1,2012-01-21T06:00:00Z,27.2070,-90.2830,21.3,11111222 
ADCP,ioos:station:wmo:42369:1,2012-01-21T06:20:00Z,27.2070,-90.2830,21.3,11111222 
ADCP,ioos:station:wmo:42369:1,2012-01-21T07:00:00Z,27.2070,-90.2830,21.3,11111222 
ADCP,ioos:station:wmo:42369:1,2012-01-21T07:20:00Z,27.2070,-90.2830,21.3,11111222 
ADCP,ioos:station:wmo:42369:1,2012-01-21T08:00:00Z,27.2070,-90.2830,21.3,11111222 
ADCP,ioos:station:wmo:42369:1,2012-01-21T08:20:00Z,27.2070,-90.2830,21.3,11111222 
ADCP,ioos:station:wmo:42369:1,2012-01-21T09:20:00Z,27.2070,-90.2830,21.3,11111222 
ADCP,ioos:station:wmo:42369:1,2012-01-21T10:00:00Z,27.2070,-90.2830,21.3,11111222 
ADCP,ioos:station:wmo:42369:1,2012-01-21T10:20:00Z,27.2070,-90.2830,21.3,11111222 
ADCP,ioos:station:wmo:42369:1,2012-01-21T11:00:00Z,27.2070,-90.2830,21.3,11111222 
ADCP,ioos:station:wmo:42369:1,2012-01-21T11:20:00Z,27.2070,-90.2830,21.3,11111222 
ADCP,ioos:station:wmo:42369:1,2012-01-21T12:00:00Z,27.2070,-90.2830,21.3,11111222 
ADCP,ioos:station:wmo:42369:1,2012-01-21T12:20:00Z,27.2070,-90.2830,21.3,11111222 
ADCP,ioos:station:wmo:42369:1,2012-01-21T13:00:00Z,27.2070,-90.2830,21.3,11111222 
ADCP,ioos:station:wmo:42369:1,2012-01-21T13:20:00Z,27.2070,-90.2830,21.3,11111222 
ADCP,ioos:station:wmo:42369:1,2012-01-21T14:00:00Z,27.2070,-90.2830,21.3,11111222 
ADCP,ioos:station:wmo:42369:1,2012-01-21T15:00:00Z,27.2070,-90.2830,21.3,11111222 
ADCP,ioos:station:wmo:42369:1,2012-01-21T16:00:00Z,27.2070,-90.2830,21.3,11111222 
ADCP,ioos:station:wmo:42369:1,2012-01-21T16:20:00Z,27.2070,-90.2830,21.3,11111222 
ADCP,ioos:station:wmo:42369:1,2012-01-21T17:00:00Z,27.2070,-90.2830,21.3,11111222 
ADCP,ioos:station:wmo:42369:1,2012-01-21T17:20:00Z,27.2070,-90.2830,21.3,11111222 
ADCP,ioos:station:wmo:42369:1,2012-01-21T18:00:00Z,27.2070,-90.2830,21.3,11111222 
ADCP,ioos:station:wmo:42369:1,2012-01-21T18:20:00Z,27.2070,-90.2830,21.3,11111222 
ADCP,ioos:station:wmo:42369:1,2012-01-21T19:00:00Z,27.2070,-90.2830,21.3,11111222 
ADCP,ioos:station:wmo:42369:1,2012-01-21T19:20:00Z,27.2070,-90.2830,21.3,11111222 
ADCP,ioos:station:wmo:42369:1,2012-01-21T20:00:00Z,27.2070,-90.2830,21.3,11111222 
ADCP,ioos:station:wmo:42369:1,2012-01-21T21:00:00Z,27.2070,-90.2830,21.3,11111222 
ADCP,ioos:station:wmo:42369:1,2012-01-21T21:20:00Z,27.2070,-90.2830,21.3,11111222 
ADCP,ioos:station:wmo:42369:1,2012-01-21T22:00:00Z,27.2070,-90.2830,21.3,11111222 
ADCP,ioos:station:wmo:42369:1,2012-01-21T22:40:00Z,27.2070,-90.2830,21.3,11111222 
ADCP,ioos:station:wmo:42369:1,2012-01-21T23:00:00Z,27.2070,-90.2830,21.3,11111222 
ADCP,ioos:station:wmo:42369:1,2012-01-22T00:00:00Z,27.2070,-90.2830,21.3,11111222 
ADCP,ioos:station:wmo:42369:1,2012-01-22T00:20:00Z,27.2070,-90.2830,21.3,11111222 
ADCP,ioos:station:wmo:42369:1,2012-01-22T01:00:00Z,27.2070,-90.2830,21.3,11111222 
ADCP,ioos:station:wmo:42369:1,2012-01-22T01:20:00Z,27.2070,-90.2830,21.3,11111222 
ADCP,ioos:station:wmo:42369:1,2012-01-22T02:20:00Z,27.2070,-90.2830,21.3,11111222 
ADCP,ioos:station:wmo:42369:1,2012-01-22T03:20:00Z,27.2070,-90.2830,21.3,11111222 
ADCP,ioos:station:wmo:42369:1,2012-01-22T04:00:00Z,27.2070,-90.2830,21.3,11111222 
ADCP,ioos:station:wmo:42369:1,2012-01-22T04:40:00Z,27.2070,-90.2830,21.3,11111222 
ADCP,ioos:station:wmo:42369:1,2012-01-22T05:00:00Z,27.2070,-90.2830,21.3,11111222 
ADCP,ioos:station:wmo:42369:1,2012-01-22T05:20:00Z,27.2070,-90.2830,21.3,11111222 
ADCP,ioos:station:wmo:42369:1,2012-01-22T05:40:00Z,27.2070,-90.2830,21.3,11111222 
ADCP,ioos:station:wmo:42369:1,2012-01-22T06:00:00Z,27.2070,-90.2830,21.3,11111222 
ADCP,ioos:station:wmo:42369:1,2012-01-22T06:20:00Z,27.2070,-90.2830,21.3,11111222 
ADCP,ioos:station:wmo:42369:1,2012-01-22T07:20:00Z,27.2070,-90.2830,21.3,11111222 
ADCP,ioos:station:wmo:42369:1,2012-01-22T07:40:00Z,27.2070,-90.2830,21.3,11111222 
ADCP,ioos:station:wmo:42369:1,2012-01-22T08:20:00Z,27.2070,-90.2830,21.3,11111222 
ADCP,ioos:station:wmo:42369:1,2012-01-22T09:00:00Z,27.2070,-90.2830,21.3,11111222 
ADCP,ioos:station:wmo:42369:1,2012-01-22T09:20:00Z,27.2070,-90.2830,21.3,11111222 
ADCP,ioos:station:wmo:42369:1,2012-01-22T10:00:00Z,27.2070,-90.2830,21.3,11111222 
ADCP,ioos:station:wmo:42369:1,2012-01-22T10:20:00Z,27.2070,-90.2830,21.3,11111222 
ADCP,ioos:station:wmo:42369:1,2012-01-22T11:00:00Z,27.2070,-90.2830,21.3,11111222 
ADCP,ioos:station:wmo:42369:1,2012-01-22T12:00:00Z,27.2070,-90.2830,21.3,11111222 
ADCP,ioos:station:wmo:42369:1,2012-01-22T12:20:00Z,27.2070,-90.2830,21.3,11111222 
ADCP,ioos:station:wmo:42369:1,2012-01-22T14:00:00Z,27.2070,-90.2830,21.3,11111222 
ADCP,ioos:station:wmo:42369:1,2012-01-22T14:20:00Z,27.2070,-90.2830,21.3,11111222 
ADCP,ioos:station:wmo:42369:1,2012-01-22T15:00:00Z,27.2070,-90.2830,21.3,11111222 
ADCP,ioos:station:wmo:42369:1,2012-01-22T15:20:00Z,27.2070,-90.2830,21.3,11111222 
ADCP,ioos:station:wmo:42369:1,2012-01-22T16:00:00Z,27.2070,-90.2830,21.3,11111222 
ADCP,ioos:station:wmo:42369:1,2012-01-22T16:40:00Z,27.2070,-90.2830,21.3,11111222 
ADCP,ioos:station:wmo:42369:1,2012-01-22T17:00:00Z,27.2070,-90.2830,21.3,11111222 
ADCP,ioos:station:wmo:42369:1,2012-01-22T17:20:00Z,27.2070,-90.2830,21.3,11111222 
ADCP,ioos:station:wmo:42369:1,2012-01-22T18:00:00Z,27.2070,-90.2830,21.3,11111222 
ADCP,ioos:station:wmo:42369:1,2012-01-22T19:00:00Z,27.2070,-90.2830,21.3,11111222 
ADCP,ioos:station:wmo:42369:1,2012-01-22T20:00:00Z,27.2070,-90.2830,21.3,11111222 
ADCP,ioos:station:wmo:42369:1,2012-01-22T20:20:00Z,27.2070,-90.2830,21.3,11111222 
ADCP,ioos:station:wmo:42369:1,2012-01-22T21:00:00Z,27.2070,-90.2830,21.3,11111222 
ADCP,ioos:station:wmo:42369:1,2012-01-22T21:20:00Z,27.2070,-90.2830,21.3,11111222 
ADCP,ioos:station:wmo:42369:1,2012-01-22T22:00:00Z,27.2070,-90.2830,21.3,11111222 
ADCP,ioos:station:wmo:42369:1,2012-01-22T23:00:00Z,27.2070,-90.2830,21.3,11111222 
ADCP,ioos:station:wmo:42369:1,2012-01-22T23:20:00Z,27.2070,-90.2830,21.3,11111222 
ADCP,ioos:station:wmo:42369:1,2012-01-23T00:00:00Z,27.2070,-90.2830,21.3,11111222 
ADCP,ioos:station:wmo:42369:1,2012-01-23T00:20:00Z,27.2070,-90.2830,21.3,11111222 
ADCP,ioos:station:wmo:42369:1,2012-01-23T01:00:00Z,27.2070,-90.2830,21.3,11111222 
ADCP,ioos:station:wmo:42369:1,2012-01-23T01:20:00Z,27.2070,-90.2830,21.3,11111222 
ADCP,ioos:station:wmo:42369:1,2012-01-23T02:20:00Z,27.2070,-90.2830,21.3,11111222 
ADCP,ioos:station:wmo:42369:1,2012-01-23T03:20:00Z,27.2070,-90.2830,21.3,11111222 
ADCP,ioos:station:wmo:42369:1,2012-01-23T04:00:00Z,27.2070,-90.2830,21.3,11111222 
ADCP,ioos:station:wmo:42369:1,2012-01-23T04:20:00Z,27.2070,-90.2830,21.3,11111222 
ADCP,ioos:station:wmo:42369:1,2012-01-23T05:00:00Z,27.2070,-90.2830,21.3,11111222 
ADCP,ioos:station:wmo:42369:1,2012-01-23T05:20:00Z,27.2070,-90.2830,21.3,11111222 
ADCP,ioos:station:wmo:42369:1,2012-01-23T07:20:00Z,27.2070,-90.2830,22.7,11111222 
ADCP,ioos:station:wmo:42369:1,2012-01-23T08:00:00Z,27.2070,-90.2830,23.0,11111222 
ADCP,ioos:station:wmo:42369:1,2012-01-23T08:20:00Z,27.2070,-90.2830,23.0,11111222 
ADCP,ioos:station:wmo:42369:1,2012-01-23T09:00:00Z,27.2070,-90.2830,22.4,11111222 
ADCP,ioos:station:wmo:42369:1,2012-01-23T09:20:00Z,27.2070,-90.2830,22.4,11111222 
ADCP,ioos:station:wmo:42369:1,2012-01-23T10:20:00Z,27.2070,-90.2830,22.4,11111222 
ADCP,ioos:station:wmo:42369:1,2012-01-23T11:00:00Z,27.2070,-90.2830,22.4,11111222 
ADCP,ioos:station:wmo:42369:1,2012-01-23T11:20:00Z,27.2070,-90.2830,22.4,11111222 
ADCP,ioos:station:wmo:42369:1,2012-01-23T12:00:00Z,27.2070,-90.2830,22.4,11111222 
ADCP,ioos:station:wmo:42369:1,2012-01-23T12:20:00Z,27.2070,-90.2830,22.4,11111222 
ADCP,ioos:station:wmo:42369:1,2012-01-23T13:20:00Z,27.2070,-90.2830,22.4,11111222 
ADCP,ioos:station:wmo:42369:1,2012-01-23T14:00:00Z,27.2070,-90.2830,22.4,11111222 
ADCP,ioos:station:wmo:42369:1,2012-01-23T14:20:00Z,27.2070,-90.2830,22.4,11111222 
ADCP,ioos:station:wmo:42369:1,2012-01-23T16:00:00Z,27.2070,-90.2830,22.4,11111222 
ADCP,ioos:station:wmo:42369:1,2012-01-23T16:20:00Z,27.2070,-90.2830,22.4,11111222 
ADCP,ioos:station:wmo:42369:1,2012-01-23T18:20:00Z,27.2070,-90.2830,22.4,11111222 
ADCP,ioos:station:wmo:42369:1,2012-01-23T19:00:00Z,27.2070,-90.2830,22.4,11111222 
ADCP,ioos:station:wmo:42369:1,2012-01-23T19:20:00Z,27.2070,-90.2830,22.4,11111222 
ADCP,ioos:station:wmo:42369:1,2012-01-23T20:20:00Z,27.2070,-90.2830,22.4,11111222 
ADCP,ioos:station:wmo:42369:1,2012-01-23T21:00:00Z,27.2070,-90.2830,22.4,11111222 
ADCP,ioos:station:wmo:42369:1,2012-01-23T23:20:00Z,27.2070,-90.2830,22.4,11111222 
ADCP,ioos:station:wmo:42369:1,2012-01-24T00:00:00Z,27.2070,-90.2830,22.4,11111222 
ADCP,ioos:station:wmo:42369:1,2012-01-24T00:20:00Z,27.2070,-90.2830,22.4,11111222 
ADCP,ioos:station:wmo:42369:1,2012-01-24T00:40:00Z,27.2070,-90.2830,22.4,11111222 
ADCP,ioos:station:wmo:42369:1,2012-01-24T01:00:00Z,27.2070,-90.2830,22.4,11111222 
ADCP,ioos:station:wmo:42369:1,2012-01-24T01:20:00Z,27.2070,-90.2830,22.4,11111222 
ADCP,ioos:station:wmo:42369:1,2012-01-24T02:20:00Z,27.2070,-90.2830,22.4,11111222 
ADCP,ioos:station:wmo:42369:1,2012-01-24T03:20:00Z,27.2070,-90.2830,22.4,11111222 
ADCP,ioos:station:wmo:42369:1,2012-01-24T04:20:00Z,27.2070,-90.2830,23.0,11111222 
ADCP,ioos:station:wmo:42369:1,2012-01-24T05:00:00Z,27.2070,-90.2830,22.9,11111222 
ADCP,ioos:station:wmo:42369:1,2012-01-24T05:20:00Z,27.2070,-90.2830,22.9,11111222 
ADCP,ioos:station:wmo:42369:1,2012-01-24T06:20:00Z,27.2070,-90.2830,22.1,11111222 
ADCP,ioos:station:wmo:42369:1,2012-01-24T07:00:00Z,27.2070,-90.2830,21.9,11111222 
ADCP,ioos:station:wmo:42369:1,2012-01-24T07:20:00Z,27.2070,-90.2830,21.9,11111222 
ADCP,ioos:station:wmo:42369:1,2012-01-24T08:00:00Z,27.2070,-90.2830,21.9,11111222 
ADCP,ioos:station:wmo:42369:1,2012-01-24T08:20:00Z,27.2070,-90.2830,21.9,11111222 
ADCP,ioos:station:wmo:42369:1,2012-01-24T09:00:00Z,27.2070,-90.2830,21.9,11111222 
ADCP,ioos:station:wmo:42369:1,2012-01-24T09:20:00Z,27.2070,-90.2830,21.9,11111222 
ADCP,ioos:station:wmo:42369:1,2012-01-24T10:00:00Z,27.2070,-90.2830,21.9,11111222 
ADCP,ioos:station:wmo:42369:1,2012-01-24T10:20:00Z,27.2070,-90.2830,21.8,11111222 
ADCP,ioos:station:wmo:42369:1,2012-01-24T11:20:00Z,27.2070,-90.2830,21.0,11111222 
ADCP,ioos:station:wmo:42369:1,2012-01-24T13:20:00Z,27.2070,-90.2830,21.0,11111222 
ADCP,ioos:station:wmo:42369:1,2012-01-24T14:00:00Z,27.2070,-90.2830,21.0,11111222 
ADCP,ioos:station:wmo:42369:1,2012-01-24T14:20:00Z,27.2070,-90.2830,21.0,11111222 
ADCP,ioos:station:wmo:42369:1,2012-01-24T15:00:00Z,27.2070,-90.2830,21.0,11111222 
ADCP,ioos:station:wmo:42369:1,2012-01-24T15:20:00Z,27.2070,-90.2830,21.0,11111222 
ADCP,ioos:station:wmo:42369:1,2012-01-24T16:00:00Z,27.2070,-90.2830,21.0,11111222 
ADCP,ioos:station:wmo:42369:1,2012-01-24T17:00:00Z,27.2070,-90.2830,21.0,11111222 
ADCP,ioos:station:wmo:42369:1,2012-01-24T18:00:00Z,27.2070,-90.2830,21.0,11111222 
ADCP,ioos:station:wmo:42369:1,2012-01-24T19:20:00Z,27.2070,-90.2830,21.0,11111222 
ADCP,ioos:station:wmo:42369:1,2012-01-24T20:00:00Z,27.2070,-90.2830,21.0,11111222 
ADCP,ioos:station:wmo:42369:1,2012-01-24T20:20:00Z,27.2070,-90.2830,21.0,11111222 
ADCP,ioos:station:wmo:42369:1,2012-01-24T21:20:00Z,27.2070,-90.2830,21.0,11111222 
ADCP,ioos:station:wmo:42369:1,2012-01-24T21:40:00Z,27.2070,-90.2830,21.0,11111222 
ADCP,ioos:station:wmo:42369:1,2012-01-24T22:00:00Z,27.2070,-90.2830,21.0,11111222 
ADCP,ioos:station:wmo:42369:1,2012-01-24T22:20:00Z,27.2070,-90.2830,21.0,11111222 
ADCP,ioos:station:wmo:42369:1,2012-01-24T23:20:00Z,27.2070,-90.2830,21.0,11111222 
ADCP,ioos:station:wmo:42369:1,2012-01-25T00:00:00Z,27.2070,-90.2830,21.0,11111222 
ADCP,ioos:station:wmo:42369:1,2012-01-25T00:20:00Z,27.2070,-90.2830,21.0,11111222 
ADCP,ioos:station:wmo:42369:1,2012-01-25T01:20:00Z,27.2070,-90.2830,21.0,11111222 
ADCP,ioos:station:wmo:42369:1,2012-01-25T02:20:00Z,27.2070,-90.2830,20.9,11111222 
ADCP,ioos:station:wmo:42369:1,2012-01-25T03:20:00Z,27.2070,-90.2830,21.7,11111222 
ADCP,ioos:station:wmo:42369:1,2012-01-25T04:00:00Z,27.2070,-90.2830,21.7,11111222 
ADCP,ioos:station:wmo:42369:1,2012-01-25T04:20:00Z,27.2070,-90.2830,21.7,11111222 
ADCP,ioos:station:wmo:42369:1,2012-01-25T05:00:00Z,27.2070,-90.2830,21.7,11111222 
ADCP,ioos:station:wmo:42369:1,2012-01-25T05:20:00Z,27.2070,-90.2830,21.7,11111222 
ADCP,ioos:station:wmo:42369:1,2012-01-25T06:00:00Z,27.2070,-90.2830,21.7,11111222 
ADCP,ioos:station:wmo:42369:1,2012-01-25T06:20:00Z,27.2070,-90.2830,21.7,11111222 
ADCP,ioos:station:wmo:42369:1,2012-01-25T07:00:00Z,27.2070,-90.2830,21.7,11111222 
ADCP,ioos:station:wmo:42369:1,2012-01-25T08:00:00Z,27.2070,-90.2830,21.7,11111222 
ADCP,ioos:station:wmo:42369:1,2012-01-25T08:20:00Z,27.2070,-90.2830,21.7,11111222 
ADCP,ioos:station:wmo:42369:1,2012-01-25T09:00:00Z,27.2070,-90.2830,21.5,11111222 
ADCP,ioos:station:wmo:42369:1,2012-01-25T09:20:00Z,27.2070,-90.2830,21.5,11111222 
ADCP,ioos:station:wmo:42369:1,2012-01-25T10:00:00Z,27.2070,-90.2830,21.5,11111222 
ADCP,ioos:station:wmo:42369:1,2012-01-25T10:20:00Z,27.2070,-90.2830,22.1,11111222 
ADCP,ioos:station:wmo:42369:1,2012-01-25T11:00:00Z,27.2070,-90.2830,22.2,11111222 
ADCP,ioos:station:wmo:42369:1,2012-01-25T11:20:00Z,27.2070,-90.2830,22.2,11111222 
ADCP,ioos:station:wmo:42369:1,2012-01-25T12:00:00Z,27.2070,-90.2830,22.2,11111222 
ADCP,ioos:station:wmo:42369:1,2012-01-25T12:20:00Z,27.2070,-90.2830,22.2,11111222 
ADCP,ioos:station:wmo:42369:1,2012-01-25T14:00:00Z,27.2070,-90.2830,22.2,11111222 
ADCP,ioos:station:wmo:42369:1,2012-01-25T14:20:00Z,27.2070,-90.2830,22.2,11111222 
ADCP,ioos:station:wmo:42369:1,2012-01-25T15:00:00Z,27.2070,-90.2830,22.2,11111222 
ADCP,ioos:station:wmo:42369:1,2012-01-25T15:20:00Z,27.2070,-90.2830,22.2,11111222 
ADCP,ioos:station:wmo:42369:1,2012-01-25T16:00:00Z,27.2070,-90.2830,22.2,11111222 
ADCP,ioos:station:wmo:42369:1,2012-01-25T16:20:00Z,27.2070,-90.2830,22.2,11111222 
ADCP,ioos:station:wmo:42369:1,2012-01-25T17:00:00Z,27.2070,-90.2830,22.2,11111222 
ADCP,ioos:station:wmo:42369:1,2012-01-25T17:20:00Z,27.2070,-90.2830,22.2,11111222 
ADCP,ioos:station:wmo:42369:1,2012-01-25T18:00:00Z,27.2070,-90.2830,22.2,11111222 
ADCP,ioos:station:wmo:42369:1,2012-01-25T18:20:00Z,27.2070,-90.2830,22.2,11111222 
ADCP,ioos:station:wmo:42369:1,2012-01-25T19:00:00Z,27.2070,-90.2830,22.2,11111222 
ADCP,ioos:station:wmo:42369:1,2012-01-25T19:20:00Z,27.2070,-90.2830,22.2,11111222 
ADCP,ioos:station:wmo:42369:1,2012-01-25T20:00:00Z,27.2070,-90.2830,22.2,11111222 
ADCP,ioos:station:wmo:42369:1,2012-01-25T20:20:00Z,27.2070,-90.2830,22.2,11111222 
ADCP,ioos:station:wmo:42369:1,2012-01-25T21:00:00Z,27.2070,-90.2830,22.2,11111222 
ADCP,ioos:station:wmo:42369:1,2012-01-25T21:20:00Z,27.2070,-90.2830,22.2,11111222 
ADCP,ioos:station:wmo:42369:1,2012-01-25T22:00:00Z,27.2070,-90.2830,22.2,11111222 
ADCP,ioos:station:wmo:42369:1,2012-01-25T22:20:00Z,27.2070,-90.2830,22.2,11111222 
ADCP,ioos:station:wmo:42369:1,2012-01-25T23:00:00Z,27.2070,-90.2830,22.2,11111222 
ADCP,ioos:station:wmo:42369:1,2012-01-25T23:20:00Z,27.2070,-90.2830,22.2,11111222 
ADCP,ioos:station:wmo:42369:1,2012-01-26T00:00:00Z,27.2070,-90.2830,22.2,11111222 
ADCP,ioos:station:wmo:42369:1,2012-01-26T00:20:00Z,27.2070,-90.2830,22.2,11111222 
ADCP,ioos:station:wmo:42369:1,2012-01-26T01:20:00Z,27.2070,-90.2830,22.2,11111222 
ADCP,ioos:station:wmo:42369:1,2012-01-26T02:00:00Z,27.2070,-90.2830,22.2,11111222 
ADCP,ioos:station:wmo:42369:1,2012-01-26T02:20:00Z,27.2070,-90.2830,22.2,11111222 
ADCP,ioos:station:wmo:42369:1,2012-01-26T03:20:00Z,27.2070,-90.2830,22.2,11111222 
ADCP,ioos:station:wmo:42369:1,2012-01-26T04:00:00Z,27.2070,-90.2830,22.2,11111222 
ADCP,ioos:station:wmo:42369:1,2012-01-26T04:20:00Z,27.2070,-90.2830,22.2,11111222 
ADCP,ioos:station:wmo:42369:1,2012-01-26T05:00:00Z,27.2070,-90.2830,22.2,11111222 